Terminal Aerodrome Forecast
Issued by NWS Charleston, WV

Current Version | Previous Version | Graphics & Text | Print | Product List | Glossary On
Versions: 1 2 3 4 5 6 7 8 9 10 11 12 13 14 15 16 17 18 19 20 21 22 23 24 25
659
FTUS41 KRLX 030529
TAFHTS
TAF
KHTS 030529Z 0306/0406 VRB03KT P6SM OVC035
      TEMPO 0308/0311 OVC030
     FM031100 00000KT P6SM OVC030
     FM031600 VRB04KT P6SM BKN035=

USA.gov is the U.S. government's official web portal to all federal, state and local government web resources and services.